Regional Weather Roundup
Issued by NWS

Home | Current Version | Previous Version | Text Only | Print | Product List | Glossary Off
Versions: 1 2 3 4 5 6 7 8 9 10 11 12 13 14 15 16 17 18 19 20 21 22 23 24 25 26 27

000
ASUS45 KTFX 251710
RWRMT
MONTANA REGIONAL WEATHER ROUNDUP
NATIONAL WEATHER SERVICE GREAT FALLS MT
1100 AM MDT MON JUL 25 2016

NOTE: "FAIR" INDICATES FEW OR NO CLOUDS BELOW 12000 FEET WITH NO
SIGNIFICANT WEATHER AND/OR OBSTRUCTIONS TO VISIBILITY.

MTZ001>007-043-251800-
WEST OF THE DIVIDE

CITY           SKY/WX    TMP DP  RH WIND       PRES   REMARKS
KALISPELL      SUNNY     74  53  48 E9        30.09F
MISSOULA       SUNNY     73  45  36 CALM      30.11F
BUTTE          SUNNY     74  40  29 N6        30.20F
MULLAN PASS    SUNNY     66  44  45 VRB3      30.24S
ANACONDA         N/A     73  43  33 NE5       30.16F
DEER LODGE       N/A     73  43  33 E3        30.18F
EUREKA           N/A     73  52  46 CALM      30.10F
HAMILTON         N/A     70  48  46 CALM      30.12F
LIBBY            N/A     73  50  43 NW5       30.09F
PLAINS           N/A     76  50  40 MISG      30.08F
RONAN            N/A     76  54  46 CALM      30.14S
$$

MTZ008-052>055-251800-
SOUTHWEST MONTANA

CITY           SKY/WX    TMP DP  RH WIND       PRES   REMARKS
BOZEMAN        SUNNY     76  47  35 N3        30.14F
DILLON         SUNNY     73  44  35 NW3       30.16F
W YELLOWSTONE  SUNNY     68  30  24 CALM      30.30F
ENNIS          SUNNY     75  36  23 N7        30.22
THREE FORKS      N/A     76  15  10 E3        30.11F
TWIN BRIDGES     N/A     72  41  32 S3        30.13F
$$

MTZ009-010-012-014-046-048-049-054-251800-
EAST SLOPES AND CENTRAL MONTANA

CITY           SKY/WX    TMP DP  RH WIND       PRES   REMARKS
CUT BANK       SUNNY     74  52  46 N14       30.14R
GREAT FALLS    SUNNY     80  43  26 W5        30.10F
MALMSTROM AFB  SUNNY     78  44  30 W5        30.10S
HELENA         SUNNY     79  46  31 CALM      30.10F
CHOTEAU          N/A     79  45  29 N18       30.14
CONRAD           N/A     77  57  49 NW12      30.14R
$$

MTZ011-013-016-021-045-047-050-051-251800-
NORTH CENTRAL MONTANA

CITY           SKY/WX    TMP DP  RH WIND       PRES   REMARKS
HAVRE            N/A     79  50  36 VRB3      30.03S
LEWISTOWN      SUNNY     78  48  34 NW8       30.12S
N BAR RANCH      N/A     81  45  28 NW13      30.14
CHINOOK          N/A     81  52  36 W7        30.01F
$$

MTZ017>020-022>027-061-062-251800-
NORTHEAST MONTANA

CITY           SKY/WX    TMP DP  RH WIND       PRES   REMARKS
GLASGOW        SUNNY     83  58  42 CALM      29.99F
JORDAN           N/A     89  43  20 VRB7      29.99F
SIDNEY         SUNNY     84  58  40 E3        29.98S
WOLF POINT     SUNNY     84  56  38 CALM      29.99S
PLENTYWOOD       N/A     82  57  42 NE5       30.00S
POPLAR           N/A     81  57  44 N6        30.00R
SCOBEY           N/A     81  56  42 E1        30.01R
$$

MTZ028>42-056>058-251800-
SOUTHCENTRAL AND SOUTHEAST MONTANA

CITY           SKY/WX    TMP DP  RH WIND       PRES   REMARKS
BAKER          SUNNY     89  53  29 NW7       30.02F
BILLINGS       MOSUNNY   81  47  30 SW8       30.06F
LIVINGSTON     SUNNY     81  34  18 NW8       30.12F
MILES CITY     SUNNY     86  47  25 NE6       29.99F
EKALAKA          N/A     89  48  24 N2        30.03S
FORSYTH          N/A     82  50  32 CALM      30.00F
LAUREL           N/A     81  44  26 SE2       30.05F
ROUNDUP          N/A     83  47  28 CALM      29.97F
$$

REGIONAL REPORTS...DAKOTAS

CITY           SKY/WX    TMP DP  RH WIND       PRES   REMARKS
WILLISTON      SUNNY     84  55  36 N6        29.98S
MINOT          SUNNY     85  58  39 E5        29.97S
DICKINSON      SUNNY     85  55  35 VRB3      29.99S
BEACH            N/A     86  50  28 N7        30.04S
CROSBY           N/A     77  63  61 CALM      30.01S
WATFORD CITY     N/A    N/A N/A N/A MISG        N/A
BISMARCK       SUNNY     83  64  52 S9        29.98F
GRAND FORKS    MOSUNNY   81  58  45 S5        29.99F
FARGO          SUNNY     82  61  48 S7        30.02F
BUFFALO SD       N/A     91  51  25 MISG      29.96F
RAPID CITY     SUNNY     86  58  38 S17G26    30.08S
$$

REGIONAL REPORTS...WYOMING/IDAHO/WASHINGTON

CITY           SKY/WX    TMP DP  RH WIND       PRES   REMARKS
GILLETTE       SUNNY     86  50  28 SE8G17    30.10F
SHERIDAN       SUNNY     88  40  18 E5        30.06F
BUFFALO WY     SUNNY     89  38  16 SE8       30.13F
CODY           SUNNY     82  39  21 N8        30.14F
YELLOWSTONE LA   N/A     62  35  36 VRB3      30.40F
IDAHO FALLS    SUNNY     77  44  30 NW5       30.15F
SALMON         SUNNY     73  45  35 CALM      30.09F
BOISE          SUNNY     84  39  20 VRB3      30.03F
SPOKANE        MOSUNNY   77  52  41 NE7       30.06S
$$

REGIONAL REPORTS...ALBERTA

CITY           SKY/WX    TMP DP  RH WIND       PRES   REMARKS
EDMONTON       SUNNY     70  52  52 W3        30.08F
CALGARY        MOSUNNY   68  50  52 S6        30.15F
LETHBRIDGE     MOSUNNY   70  55  60 N8        30.13F
MEDICINE HAT   MOSUNNY   77  59  53 NE13      30.05S
$$

REGIONAL REPORTS...SASKATCHEWAN

CITY           SKY/WX    TMP DP  RH WIND       PRES   REMARKS
SWIFT CURRENT  SUNNY     73  61  64 NE14G23   30.04S
REGINA         MOSUNNY   75  63  64 VRB5      29.99R
SASKATOON      MOSUNNY   75  57  53 N8        30.03S
$$




USA.gov is the U.S. government's official web portal to all federal, state and local government web resources and services.